Regional Weather Roundup
Issued by NWS

Home | Current Version | Previous Version | Text Only | Print | Product List | Glossary Off
Versions: 1 2 3 4 5 6 7 8 9 10 11 12 13 14 15 16 17 18 19 20 21 22 23 24 25 26 27 28 29 30 31 32 33 34 35 36 37 38 39 40 41 42 43 44 45 46 47 48 49 50

000
ASUS43 KLOT 020710
RWRIL

ILLINOIS REGIONAL WEATHER ROUNDUP
NATIONAL WEATHER SERVICE CHICAGO/ROMEOVILLE IL
100 AM CST MON MAR 02 2015

NOTE: "FAIR" INDICATES FEW OR NO CLOUDS BELOW 12,000 FEET WITH NO
SIGNIFICANT WEATHER AND/OR OBSTRUCTIONS TO VISIBILITY.

* THESE STATIONS ARE NOT UNDER NWS QUALITY CONTROL. THEY ALSO MAY NOT
  REPORT WEATHER SUCH AS PRECIPITATION OR FOG.

ILZ001-002-007-009-015-016-024-020800-
NORTHWEST ILLINOIS

CITY           SKY/WX    TMP DP  RH WIND       PRES   REMARKS
MOLINE         FAIR      10   4  76 CALM      30.45R
STERLING*      PTCLDY     9   3  78 W8        30.43R WCI  -4
SAVANNA*       CLEAR     17  10  75 NW3       30.45R
$$

ILZ003-004-008-010-011-017-018-020800-
NORTH CENTRAL ILLINOIS

CITY           SKY/WX    TMP DP  RH WIND       PRES   REMARKS
ROCKFORD       CLEAR     15   7  70 W8        30.42R WCI   4
FREEPORT*      PTCLDY    14   8  76 W8        30.42R WCI   3
ROCHELLE*      PTCLDY     4   1  87 CALM      30.43R
DE KALB*       CLEAR     12   6  76 W10       30.39S WCI  -1
PERU*          PTCLDY    16  10  78 W9        30.45R WCI   4
$$

ILZ005-006-012>014-019>023-020800-
NORTHEAST ILLINOIS

CITY           SKY/WX    TMP DP  RH WIND       PRES   REMARKS
CHICAGO-OHARE  CLEAR     18   8  65 W12       30.38R WCI   5
CHICAGO-MIDWAY CLEAR     19  10  68 W8        30.40R WCI   9
AURORA         CLEAR      8   1  73 W7        30.41R WCI  -3
LANSING*       PTCLDY    17  10  73 W6        30.40R WCI   9
JOLIET*        CLEAR     13   7  76 W5        30.43R WCI   6
WAUKEGAN       CLEAR     17   7  64 W6        30.36R WCI   9
DUPAGE AIRPORT CLEAR     13   5  70 W10       30.39R WCI   0
KANKAKEE*      PTCLDY    10   6  86 W10       30.42R WCI  -4
WHEELING       CLEAR     18   7  62 W8        30.40R WCI   8
MORRIS*        CLEAR      9   6  85 W12       30.43R WCI  -5
ROMEOVILLE*    CLEAR     12   6  76 W8        30.42R WCI   1
NORTHERLY ISL    N/A     21  10  62 W10         N/A  WCI  10
$$

LMZ740>746-020800-
SOUTHERN LAKE MICHIGAN

STATION/POSITION SKY/WX   TEMP    WIND        PRES    VSBY  WAVE
                          AIR SEA DIR/SP/G                  HT/PER
                          (F)     (DEG/KT/KT) (MB)    (MI)  (FT/S)
WAUKEGAN HARBOR            19     270/  8/ 14   N/A
HARRISON CRIB              21     280/ 17/ 20   N/A
BURNHAM HARBOR             21     280/  9/ 13   N/A
CALUMET HARBOR             19     260/  6/ 10 1027.6R
MICHIGAN CITY              19     240/ 12/ 14   N/A
$$

ILZ025>027-034>036-040-047-049-050-058-095>099-020800-
WEST-CENTRAL ILLINOIS

CITY           SKY/WX    TMP DP  RH WIND       PRES   REMARKS
QUINCY         MOCLDY    23  17  78 W5        30.49R WCI  17
GALESBURG*     MOCLDY    14  12  90 SW5       30.47R WCI   7
MACOMB*        MOCLDY    17  15  91 W7        30.50R WCI   7
JACKSONVILLE*  MOCLDY    18  14  86 W5        30.50R WCI  11
PITTSFIELD*    MOCLDY    20  16  85 W3        30.51R
$$

ILZ028>032-037-038-041>044-048-051>054-059>061-020800-
CENTRAL ILLINOIS

CITY           SKY/WX    TMP DP  RH WIND       PRES   REMARKS
PONTIAC        MOCLDY    16  11  81 W7        30.45R WCI   7
BLOOMINGTON    MOCLDY    19  14  81 W8        30.45R WCI   9
DECATUR        MOCLDY    23  17  78 NW9       30.47R WCI  13
PEORIA         MOCLDY    19  13  77 W5        30.48R WCI  12
LACON*         PTCLDY    18  10  71 SW5       30.46R WCI  11
LINCOLN*       MOCLDY    23  18  80 W3        30.50R
SPRINGFIELD    MOCLDY    17  13  84 W6        30.50R WCI   9
TAYLORVILLE    MOCLDY    14  12  92 W6        30.49R WCI   5
$$

ILZ033-039-045-046-055>057-062-063-020800-
EAST-CENTRAL ILLINOIS

CITY           SKY/WX    TMP DP  RH WIND       PRES   REMARKS
CHAMPAIGN      MOCLDY    12   9  87 W7        30.45R WCI   1
DANVILLE*      MOCLDY    18  12  79 W9        30.41R WCI   6
RANTOUL*       PTCLDY    16  12  84 NW7       30.44R WCI   6
MATTOON        MOCLDY    16  11  80 W10       30.45R WCI   4
PARIS*         MOCLDY    19  15  87 W7        30.45S WCI   9
$$

ILZ079-100>102-020800-
SOUTHWEST ILLINOIS

CITY           SKY/WX    TMP DP  RH WIND       PRES   REMARKS
ALTON          PTCLDY    17  16  95 W3        30.51R FOG
BELLEVILLE     PTCLDY    16  16 100 SW1       30.50R FOG
CAHOKIA*       FOG       14  13  95 CALM      30.52R VSB 1/4
SPARTA*        CLEAR     24  21  89 NW5       30.51R WCI  18
$$

ILZ064>066-069>071-074>076-080>082-084>086-088>090-092>094-020800-
SOUTH-CENTRAL ILLINOIS

CITY           SKY/WX    TMP DP  RH WIND       PRES   REMARKS
CARBONDALE     CLEAR     27  23  85 N7        30.50R WCI  19
CAIRO*         CLEAR     33  26  75 N7        30.47R WCI  27
EFFINGHAM*     PTCLDY    19  16  86 CALM      30.49R
MARION         CLEAR     28  25  86 N5        30.49R WCI  23
MT. VERNON     PTCLDY    14  10  85 CALM      30.49R
CENTRALIA*     FOG       16  14  90 CALM      30.48S VSB<1/4
SALEM*         FOG       18  15  90 CALM      30.49R VSB 1/2
METROPOLIS*    MOCLDY    31  27  83 N7        30.46R WCI  25
$$

ILZ067-068-072-073-078-083-087-091-020800-
SOUTHEAST ILLINOIS

CITY           SKY/WX    TMP DP  RH WIND       PRES   REMARKS
LAWRENCEVILLE  CLEAR     20  16  84 NW7       30.47S WCI  11
FLORA*         CLEAR     21  19  91 NW6       30.49R WCI  13
FAIRFIELD*     PTCLDY    23  20  87 NW5       30.48R WCI  17
HARRISBURG*    CLEAR     28  24  84 N10       30.48R WCI  19
ROBINSON*      FAIR      17  15  92 NW5       30.48R WCI  10
CARMI*         CLEAR     28  25  89 NW5       30.47S WCI  22
$$

ABBREVIATIONS USED IN REMARKS
   TC - TEMPERATURE IN CELSIUS
  WCI - WIND CHILL INDEX
   HX - HEAT INDEX
  VSB - VISIBILITY
$$



USA.gov is the U.S. government's official web portal to all federal, state and local government web resources and services.